Preview of NWS' New Version of Forecast
This preview is not operational and should not be used for support decisions.

Regional Weather Roundup (RWR)

Issued by National Weather Service (NWS)

                            
000
ASUS45 KBOU 161010
RWRCO 

WEATHER ROUNDUP FOR COLORADO
NATIONAL WEATHER SERVICE DENVER/BOULDER CO
400 AM MDT SUN JUN 16 2019

NOTE: "FAIR" INDICATES FEW OR NO CLOUDS BELOW 12000 FEET WITH NO
SIGNIFICANT WEATHER AND/OR OBSTRUCTIONS TO VISIBILITY.

COZ001>005-013-030-031-161100-
...NORTHWEST COLORADO...
  
CITY           SKY/WX    TMP DP  RH WIND       PRES   REMARKS
CRAIG          CLOUDY    53  48  83 CALM      30.08R                  
HAYDEN         FAIR      53  44  71 SE9       30.12S                  
MEEKER         MOCLDY    47  41  80 CALM      30.10S                  
RANGELY        FAIR      55  39  55 CALM      30.02S                  
RABBIT EARS PA NOT AVBL                                               
STEAMBOAT SPGS CLOUDY    53  46  76 E6        30.10F                  
WALDEN         CLOUDY    50  43  76 S6        30.21S                  
$$

COZ006>008-011-161100-
...WEST CENTRAL VALLEYS...
  
CITY           SKY/WX    TMP DP  RH WIND       PRES   REMARKS
GRAND JUNCTION FAIR      63  42  46 SE13      29.98S                  
MONTROSE       FAIR      56  38  50 SE8       30.07S                  
EAGLE          FAIR      46  38  73 E7        30.15S                  
RIFLE          FAIR      50  45  83 SE7       30.05S                  
DELTA          FAIR      56  41  57 CALM      30.04R                  
NUCLA          MOCLDY    54  37  54 E12       30.10R                  
$$

COZ017>023-064>068-161100-
...SOUTHWEST COLORADO...
  
CITY           SKY/WX    TMP DP  RH WIND       PRES   REMARKS
DURANGO        FAIR      46  39  76 CALM      30.13S                  
CORTEZ         FAIR      46  42  86 E3        30.07S                  
PAGOSA SPRINGS FAIR      42  40  91 CALM      30.19F                  
TELLURIDE      FAIR      43  36  75 SE7       30.29S                  
WOLF CREEK PAS FAIR      41  30  65 CALM      30.47F                  
$$

COZ009-010-012-014-032>034-037-058>063-161100-
...CENTRAL COLORADO...
  
CITY           SKY/WX    TMP DP  RH WIND       PRES   REMARKS
ASPEN          FAIR      44  36  73 CALM      30.18S                  
BUENA VISTA    FAIR      42  38  86 W3        30.24R                  
COPPER MTN     FAIR      43  32  65 S9        30.42S                  
BERTHOUD PASS  FAIR      36  27  69 W9G17     30.43R                  
COTTONWOOD PAS FAIR      45  36  70 SE3       30.31S                  
GUNNISON       FAIR      42  36  79 CALM      30.23S                  
GRANBY         FAIR      37  35  94 SE3       30.23R                  
KREMMLING      FAIR      41  37  87 CALM      30.20R                  
LEADVILLE      FAIR      33  32  96 NE7       30.31S WCI  27          
MONARCH PASS   FAIR      37  30  75 MISG      30.53S                  
SALIDA         FAIR      46  39  76 CALM      30.29S                  
SUNLIGHT       FAIR      43  32  65 SW3       30.37S                  
WILKERSON PASS MOCLDY    39  32  75 SW8       30.40F                  
$$

COZ069>075-161100-
...SAN LUIS VALLEY/SANGRE DE CRISTO MOUNTAINS...
  
CITY           SKY/WX    TMP DP  RH WIND       PRES   REMARKS
ALAMOSA        FAIR      44  39  82 W3        30.20R                  
DEL NORTE      FAIR      46  35  65 W10       30.24R                  
LA VETA PASS   NOT AVBL                                               
SAGUACHE       FAIR      41  36  81 CALM      30.24R                  
$$

COZ035-036-038>040-161100-
...NORTHERN COLORADO FRONT RANGE...
  
CITY           SKY/WX    TMP DP  RH WIND       PRES   REMARKS
DENVER INTL AP MOCLDY    53  46  77 S10       30.03S                  
AURORA         MOCLDY    53  44  72 S10       30.05F                  
FRONT RANGE AP FAIR      57  47  69 S6        30.06S                  
ERIE MUNI ARPT NOT AVBL                                               
BOULDER MUN AP FAIR      54  43  66 CALM      30.03R                  
CENTENNIAL     FAIR      53  44  71 S7        30.07S                  
BROOMFIELD     FAIR      52  43  71 SW5       30.05R                  
FORT COLLINS     N/A     52  48  86 N3        30.04R                  
LONGMONT       FAIR      52  45  77 CALM      30.05R                  
$$

COZ041-046-047-076>085-087-088-161100-
...PIKES PEAK/PALMER DIVIDE AND SOUTHERN FOOTHILLS...
  
CITY           SKY/WX    TMP DP  RH WIND       PRES   REMARKS
COLO. SPRINGS  MOCLDY    48  45  89 N6        30.12F                  
A. F. ACADEMY  FAIR      43  42  95 N5        30.12S                  
SCHRIEVER AFB  NOT AVBL                                               
CHEYENNE MTN   NOT AVBL                                               
ELLICOTT       NOT AVBL                                               
FALCON         FAIR      47  45  91 W13       30.16S                  
FORT CARSON    NOT AVBL                                               
LIMON          FAIR      45  45 100 N5        30.06F                  
MONUMENT HILL  FAIR      43  39  87 S8        30.16S                  
CANON CITY     NOT AVBL                                               
WALSENBURG     NOT AVBL                                               
TRINIDAD       FAIR      50  46  86 W14       30.10S                  
$$

COZ042>045-048>051-090-091-161100-
...NORTHEAST COLORADO...
  
CITY           SKY/WX    TMP DP  RH WIND       PRES   REMARKS
GREELEY ARPT   FAIR      51  47  86 NW3       30.03R                  
AKRON          FAIR      54  50  86 SW9       30.02R                  
BURLINGTON     FAIR      54  49  83 W6        30.00S                  
WRAY           FAIR      54  46  76 CALM      29.98F                  
YUMA           FAIR      52  41  66 W8        29.99R                  
STERLING       FAIR      52  50  93 N3        29.98R                  
HOLYOKE        FAIR      61  54  77 SE8       29.99S                  
FORT MORGAN    FAIR      53  49  89 SW3       30.02S                  
$$

COZ086-089-092>099-161100-
...SOUTHEAST COLORADO...
  
CITY           SKY/WX    TMP DP  RH WIND       PRES   REMARKS
PUEBLO         FAIR      51  49  92 SW6       30.04F                  
LA JUNTA       FAIR      57  53  86 W5        30.02R                  
LAMAR          FAIR      59  56  89 CALM      29.98R                  
SPRINGFIELD      N/A     57  55  93 NW10      30.01R                  
$$